Theta_e
342 343 337 333 328 330 332 329 331 331 334 335 332 332 334 336 337 338 335 333 334 335 335 332 326 328 327 326 324 324 328 329 331 333 333 332 336 342 346 337 338 336 337
341 342 340 338 330 331 329 330 331 333 334 332 333 334 335 337 338 338 340 338 336 334 329 325 337 336 325 322 325 325 325 328 331 330 330 333 342 344 345 334 334 336 336
340 341 341 339 333 331 330 330 332 335 335 338 339 337 339 340 341 341 340 339 337 332 329 333 336 334 327 322 322 324 327 331 333 334 330 335 341 343 338 338 335 336 338
338 339 340 341 333 331 329 331 334 335 334 335 333 332 332 337 335 343 345 341 338 335 336 334 335 332 332 338 338 335 339 340 341 337 335 335 338 338 335 337 335 336 336
340 342 341 334 331 331 329 331 336 333 333 333 335 334 331 332 333 338 342 341 337 337 337 333 329 328 331 340 340 338 342 343 343 337 337 335 335 334 332 329 332 335 335
340 338 330 330 329 328 331 332 335 332 334 333 344 343 339 338 335 338 338 338 338 338 338 335 335 335 328 341 341 342 342 342 340 340 340 330 330 332 335 339 336 335 335
338 340 336 329 328 330 331 334 332 332 335 336 338 341 339 337 338 338 338 339 339 339 340 340 339 339 334 336 340 342 342 341 341 342 340 328 331 338 337 332 335 335 336
338 339 337 331 330 331 331 335 332 333 337 336 337 337 338 338 338 340 341 341 342 340 337 335 334 336 339 338 340 341 343 341 343 341 337 331 329 334 335 333 333 335 336
340 337 335 332 331 331 334 332 331 334 337 335 336 337 337 337 341 341 342 343 342 342 341 339 339 336 338 337 340 342 341 342 340 339 336 331 329 330 331 333 333 335 334
339 335 333 330 330 331 334 331 331 335 336 336 335 336 336 337 340 341 339 341 341 341 341 340 340 339 339 339 340 342 339 339 340 340 343 335 328 329 330 333 332 331 335
339 334 331 328 330 333 331 330 332 336 336 336 342 343 342 340 340 341 342 342 342 341 342 341 339 341 340 342 343 341 340 341 342 343 338 331 328 329 329 328 330 330 334
339 334 329 328 329 330 331 331 334 336 338 344 345 347 344 341 339 339 341 342 342 341 341 341 341 343 343 342 344 343 342 340 342 342 331 328 328 325 329 331 329 327 330
335 332 329 327 327 328 330 335 336 338 345 345 345 346 345 345 346 344 343 346 342 338 341 342 341 343 344 342 344 345 343 342 343 336 334 328 327 330 329 329 330 325 322
335 331 329 329 327 327 330 337 338 343 345 336 346 344 346 345 345 347 347 349 346 345 341 343 342 341 344 345 346 343 342 342 340 337 333 334 328 329 328 332 330 329 325
340 330 328 329 328 328 334 335 342 343 345 341 343 343 347 344 344 348 347 345 344 345 343 346 345 343 344 342 345 342 341 343 342 338 336 328 334 330 326 327 327 329 324
343 333 330 335 336 341 344 343 345 347 346 346 347 343 345 346 346 344 346 347 347 344 342 343 343 343 343 343 343 342 341 341 340 340 340 332 330 334 334 333 329 327 328
344 338 340 338 343 344 345 344 345 345 347 345 346 347 346 344 347 347 345 346 347 343 343 343 344 344 343 343 340 340 341 340 338 341 340 338 336 330 334 336 335 335 332
344 342 343 342 341 346 344 343 347 345 345 346 347 347 348 344 345 345 348 347 347 346 344 343 340 341 338 339 340 341 339 338 339 339 339 340 339 337 336 334 334 335 334
343 343 343 343 343 341 343 343 345 345 344 344 344 344 343 343 341 344 346 347 347 345 345 343 343 342 340 341 337 338 336 338 337 339 339 337 340 341 341 336 334 334 333
345 344 344 343 344 343 342 340 345 345 345 345 345 344 343 344 343 345 346 346 347 345 343 344 344 344 343 339 338 335 335 339 339 338 339 338 340 340 341 339 338 335 335
347 347 346 344 344 344 344 343 342 345 346 345 346 344 343 344 347 346 342 346 347 347 347 344 344 343 343 338 339 338 338 339 339 338 339 338 339 339 337 337 340 341 339
346 347 347 345 343 344 344 341 336 343 343 343 345 345 344 344 348 347 344 347 349 348 346 347 346 341 342 334 335 337 337 339 340 339 339 337 339 337 336 336 337 339 339
346 346 347 346 345 345 343 343 339 335 337 343 344 344 343 345 349 347 345 345 350 347 349 348 344 343 343 335 337 337 338 336 339 340 340 340 338 337 336 336 336 332 330
346 344 346 347 345 344 344 342 345 336 332 332 335 341 344 343 349 347 346 348 349 349 349 349 347 343 343 336 337 338 340 339 340 339 338 338 337 339 337 336 337 337 337
349 345 345 346 344 344 344 343 344 344 332 332 335 342 342 342 346 346 347 347 349 347 346 347 348 341 345 343 339 334 341 342 339 337 336 337 338 338 337 337 339 338 338
350 349 348 345 344 344 344 343 343 343 339 335 338 343 345 343 343 346 349 350 346 345 346 345 349 345 344 345 342 334 337 340 340 339 339 338 339 338 338 338 340 339 339
Wind_Speed
26 28 28 28 26 22 23 21 19 17 16 16 16 16 15 14 14 14 13 13 13 12 11 9 10 11 9 7 7 8 8 9 10 9 9 9 9 12 13 11 11 11 12
29 29 28 26 24 21 20 19 17 16 16 15 16 16 16 15 14 14 14 13 13 12 12 14 14 12 11 10 10 11 12 13 14 13 10 11 12 11 9 10 11 11 12
30 29 28 26 24 22 19 17 16 16 15 15 16 16 16 15 15 15 15 14 14 13 13 12 11 12 13 15 14 14 16 17 17 15 14 11 12 12 10 11 12 12 13
31 29 28 26 24 21 17 16 16 15 15 14 14 14 14 14 14 15 13 13 13 13 13 13 13 15 15 17 18 18 17 16 14 15 14 10 9 8 10 11 12 12 12
30 28 27 26 24 19 16 15 15 14 14 14 14 14 14 14 13 14 13 12 13 13 12 13 15 15 15 16 19 17 21 17 13 14 13 10 8 9 11 10 11 12 11
31 27 27 25 22 19 17 15 15 14 14 14 14 14 14 13 14 13 13 12 12 12 12 12 12 13 14 14 16 17 16 16 14 12 10 9 8 10 12 11 11 12 12
31 29 26 24 21 19 17 15 14 14 14 14 14 14 14 15 15 14 13 13 13 13 12 11 10 12 12 13 13 14 15 13 11 10 7 8 8 10 10 10 10 11 12
31 28 26 24 21 19 17 16 14 14 13 14 15 16 15 16 17 16 15 15 15 14 14 14 13 11 13 13 12 11 13 13 12 8 9 8 9 9 10 10 11 11 11
28 27 27 25 21 19 17 15 14 14 14 15 16 17 17 16 16 16 15 15 15 13 13 12 12 11 11 15 15 11 11 11 9 10 10 7 8 8 9 11 10 10 10
28 26 26 24 21 19 17 15 14 14 15 16 17 17 17 16 16 15 14 13 12 11 11 12 12 11 10 13 15 10 7 10 10 9 6 5 6 8 10 11 9 10 10
28 26 25 23 21 19 16 15 14 15 16 17 18 17 18 17 15 14 13 11 9 9 9 9 12 11 9 11 11 9 6 7 9 4 4 5 6 6 9 10 10 10 11
30 27 25 23 21 19 16 15 15 17 18 18 15 14 15 15 14 12 10 8 7 9 10 9 12 11 10 9 8 7 3 7 7 5 5 5 5 5 7 8 9 9 10
30 28 26 23 21 19 17 16 17 18 16 12 13 12 14 13 12 11 8 6 8 9 7 10 10 11 9 7 4 4 5 8 7 6 6 6 5 5 6 7 8 8 8
29 28 26 23 22 20 18 17 18 16 13 13 10 10 10 8 7 6 3 3 3 5 6 12 9 10 7 6 4 5 8 7 8 8 6 5 6 5 5 6 6 6 6
28 27 26 24 23 23 19 18 17 14 12 14 11 9 7 9 8 6 8 5 3 5 8 10 9 8 8 7 5 7 7 6 6 6 8 5 5 6 5 5 5 4 4
27 29 26 25 24 22 18 18 15 12 11 10 7 7 3 6 7 8 5 5 5 5 7 10 7 7 7 8 9 4 6 6 7 6 7 9 5 4 5 4 4 3 3
29 29 29 26 23 20 18 18 15 12 12 10 8 7 5 4 5 5 7 7 5 7 8 7 6 7 7 6 5 6 3 2 6 8 6 6 9 5 4 4 4 4 3
34 33 30 28 26 22 22 23 16 15 14 13 12 9 6 6 7 5 7 4 7 8 7 5 7 8 9 8 4 4 3 3 3 7 5 5 5 5 5 4 3 3 3
37 36 35 34 31 27 24 24 22 21 16 14 13 10 7 5 9 8 6 7 7 7 7 7 6 6 5 5 5 6 6 5 2 5 5 5 5 3 3 4 4 3 3
39 37 36 39 34 31 25 25 26 27 23 18 15 12 12 11 7 9 7 7 10 10 7 7 6 4 6 4 9 7 6 6 4 3 6 5 4 4 3 1 1 2 3
41 39 35 43 39 34 30 31 33 29 28 23 16 16 15 12 11 7 11 11 10 10 9 7 5 7 6 6 13 7 6 7 10 7 5 4 4 4 2 1 2 2 2
48 45 41 42 40 35 28 27 35 34 30 27 22 19 16 14 13 8 10 13 10 10 10 5 10 9 7 9 10 8 9 8 8 12 7 5 7 4 2 1 1 3 4
51 50 47 45 41 37 30 27 26 32 32 29 29 25 21 16 15 10 9 11 10 9 9 6 9 12 9 14 10 5 4 5 8 7 9 7 5 4 1 3 6 6 3
54 54 50 48 44 38 34 31 29 32 34 33 27 27 24 19 17 12 11 12 12 11 11 7 7 13 11 13 10 7 4 6 12 7 10 9 6 5 5 5 4 4 5
56 56 54 51 46 42 38 34 33 32 31 28 25 22 20 23 19 18 14 11 13 12 9 11 11 12 12 11 10 12 7 8 9 9 11 13 11 11 10 9 9 5 3
57 56 59 54 49 44 40 38 38 35 31 30 27 24 23 20 20 19 18 12 12 13 13 13 13 12 13 12 11 10 13 11 15 10 12 13 16 13 15 14 13 11 7
Wind_Direction
148 144 148 144 139 131 128 126 123 117 118 117 116 115 114 120 126 128 128 127 122 118 110 105 105 99 94 110 124 135 137 131 116 110 117 122 125 121 107 88 101 104 103
147 146 150 148 143 133 126 126 120 117 116 112 112 110 110 107 115 121 119 120 121 115 112 114 108 96 90 103 116 118 120 122 118 113 117 127 123 117 117 87 109 107 107
149 147 148 151 147 134 128 125 120 117 113 112 110 107 107 105 108 116 118 118 113 111 109 106 100 98 92 95 105 113 116 118 114 112 113 119 111 109 111 104 106 109 110
149 148 148 151 148 141 133 125 121 118 115 110 107 107 110 110 107 108 114 114 114 112 106 96 99 105 100 100 98 106 112 114 106 100 95 99 118 119 113 109 108 110 109
148 148 149 150 149 147 137 129 126 117 111 107 107 107 108 106 108 112 111 111 115 113 105 101 100 104 110 110 103 99 112 113 114 97 83 80 111 113 115 111 113 116 115
148 148 149 150 150 148 141 134 130 120 110 110 109 108 103 104 105 104 107 107 110 109 103 99 98 101 112 119 107 104 117 114 109 98 84 79 112 115 113 116 118 115 116
150 150 151 151 150 149 143 139 133 121 113 113 112 109 110 109 107 104 104 103 101 100 96 87 92 106 112 123 111 111 113 106 91 80 81 94 116 125 119 120 115 117 119
152 152 151 152 151 151 146 141 135 123 118 115 113 109 110 108 105 102 100 98 97 95 92 85 84 101 119 134 122 104 116 110 92 71 83 91 110 118 120 121 120 119 124
157 156 153 153 155 153 149 141 132 126 123 121 116 113 111 109 107 101 98 98 94 91 91 94 89 92 112 125 127 116 108 126 100 77 81 82 107 119 122 121 123 125 125
161 160 157 156 158 154 150 144 135 133 131 127 120 116 119 117 115 108 97 100 101 100 98 99 102 100 112 126 138 135 116 119 108 114 57 87 112 126 124 125 122 130 128
166 165 161 162 160 156 154 148 140 138 133 128 123 117 114 114 116 111 106 108 108 102 104 108 114 121 121 136 139 117 125 117 119 102 47 103 116 134 126 128 125 124 124
170 169 167 166 163 160 159 147 145 141 139 132 130 125 122 120 118 121 126 129 137 119 107 127 133 129 126 135 130 120 126 166 91 77 72 104 118 132 138 134 136 131 134
172 172 171 170 168 165 158 149 149 147 142 134 140 139 130 131 122 121 129 135 123 91 135 152 142 142 123 131 127 114 131 141 102 83 87 99 125 140 144 148 146 141 140
177 179 175 172 169 166 155 153 148 148 141 146 130 135 150 153 136 143 149 192 182 114 75 145 142 140 114 104 171 153 146 143 98 90 79 103 122 141 157 157 151 146 141
180 184 182 175 172 160 147 158 157 148 140 129 128 159 150 151 143 148 178 146 107 129 113 121 123 138 118 110 110 142 114 138 98 102 72 79 123 129 141 161 157 161 147
187 184 181 178 172 171 159 164 160 166 155 163 161 180 115 146 147 165 174 158 133 100 113 110 113 136 129 131 118 131 120 130 121 136 91 78 103 129 140 147 149 160 159
192 185 180 179 179 180 173 181 183 190 191 180 188 181 183 212 160 174 164 154 147 133 113 111 103 142 145 133 134 113 140 133 136 142 108 106 82 101 129 160 167 173 175
196 194 188 187 187 184 183 189 194 204 184 180 195 208 215 256 228 178 180 161 152 152 124 123 124 133 136 146 171 210 178 174 139 152 119 131 109 115 106 118 163 174 184
198 199 198 196 195 197 199 192 192 189 187 194 210 215 225 249 222 193 183 196 179 174 157 168 156 158 182 185 173 182 183 176 153 162 142 124 135 143 103 100 125 154 168
200 204 210 204 201 203 211 207 197 198 194 198 206 212 222 229 222 203 191 163 163 158 169 184 178 169 180 190 178 145 172 186 189 164 176 139 121 133 130 74 14 167 183
204 208 209 207 204 205 211 215 207 204 200 200 203 215 215 230 229 227 212 195 180 189 197 186 184 194 183 173 173 162 162 168 192 179 162 174 178 157 114 151 117 163 1
207 210 209 210 209 210 214 214 212 210 209 212 204 217 214 222 224 239 216 206 211 197 199 198 203 197 194 172 165 168 175 170 195 208 186 185 185 187 155 107 208 242 281
208 209 211 210 211 213 217 217 215 215 217 217 212 213 219 215 225 239 228 211 212 202 217 213 213 197 188 179 175 180 179 181 182 191 202 224 224 206 210 45 31 28 14
209 211 212 211 213 218 219 220 215 211 212 214 212 215 219 220 223 237 244 218 216 220 216 218 238 204 193 193 208 198 175 199 174 185 205 217 231 240 282 304 329 7 37
207 210 211 212 216 219 224 226 220 220 220 219 215 208 211 221 226 237 244 225 222 219 216 216 218 202 202 200 198 203 192 180 190 207 206 218 239 254 258 279 291 293 339
208 210 211 212 216 220 225 229 226 225 223 221 217 213 211 216 223 228 235 234 232 231 231 222 218 207 210 215 207 197 204 201 203 217 231 231 245 248 258 266 273 277 289